Location: Bern�tre
(50.1974°N, 2.0915°E)
Time: 04:28:55
(UTC+00:00)

Cosmos 2266 Rocket - Pass Details

Date: 18 September 2020
Orbit: 934 x 1008 km, 82.9° (Epoch: 29 October)

Event Time Altitude Azimuth Distance (km) Brightness Sun altitude
Rises 20:57:29 0° 352° (N) 3,620 7.7 -27.2°
Reaches altitude 10° 21:00:02 10° 357° (N) 2,665 6.8 -27.5°
Enters shadow 21:05:33 56° 56° (ENE) 1,106 4.1 -28.1°
